Location: Boulder, CO
(40.0083°N, 105.2472°W)
Time: 05:12:21
(UTC-06:00)

SORCE - Visible Passes

Search period start: 25 October 2014 00:00
Search period end: 03 November 2014 23:00
Orbit: 591 x 626 km, 40.0° (Epoch: 25 October)

Date Brightness Start Highest point End Pass type
(mag) Time Alt. Az. Time Alt. Az. Time Alt. Az.
26 Oct 8.4 19:48:35 10° SSE 19:48:43 10° SSE 19:48:43 10° SSE visible
27 Oct 7.9 19:59:50 10° SSW 20:01:40 18° S 20:01:40 18° S visible
28 Oct 7.6 20:12:08 10° SW 20:14:32 25° SSW 20:14:32 25° SSW visible
29 Oct 8.0 18:45:16 10° S 18:47:47 15° SE 18:50:20 10° ESE visible
29 Oct 7.5 20:24:51 10° SW 20:27:18 30° SW 20:27:18 30° SW visible
30 Oct 7.4 18:57:02 10° SSW 19:00:40 25° SSE 19:03:08 16° ESE visible
30 Oct 7.8 20:37:50 10° WSW 20:39:59 27° WSW 20:39:59 27° WSW visible
31 Oct 6.8 19:09:29 10° SW 19:13:38 39° SSE 19:15:45 24° ESE visible
31 Oct 8.3 20:50:58 10° W 20:52:35 22° WSW 20:52:35 22° WSW visible
01 Nov 6.2 19:22:18 10° WSW 19:26:41 57° SSE 19:28:18 35° E visible
01 Nov 8.7 21:04:09 10° W 21:05:08 16° W 21:05:08 16° W visible
02 Nov 5.9 18:35:20 10° WSW 18:39:47 75° SSE 18:40:48 52° E visible
02 Nov 9.1 20:17:20 10° W 20:17:38 12° W 20:17:38 12° W visible
03 Nov 5.8 18:48:28 10° W 18:52:57 88° S 18:53:15 77° E visible
